Location: *
(2.7500°S, 66.6833°W)
Time: 03:06:17
(UTC+00:00)

ARIANE 44LP R/B - Pass Details

Date: 24 May 2024
Orbit: 271 x 26028 km, 6.6° (Epoch: 23 June)

Event Time Altitude Azimuth Distance (km) Brightness Sun altitude
Rises 22:40:38 0° 261° (W) 2,396 6.8 -4.9°
Reaches altitude 10° 22:41:53 10° 260° (W) 1,815 6.0 -5.2°
Maximum altitude 22:45:25 82° 173° (S) 1,034 3.7 -6.1°
Drops below altitude 10° 23:04:06 10° 85° (E) 8,502 7.8 -10.4°
Sets 23:24:16 0° 84° (E) 14,713 9.0 -15.1°
